Flag for Brazil Weather past 2 weeks in Campo Grande, Mato Grosso Do Sul, Brazil

Now
61 °F

Thunderstorms. Passing clouds.


Feels Like: 61 °F
Forecast: 61 / 75 °F
Wind: 5 mph from North

Location: Campo Grande Aeroporto

Current Time: Jul 28, 2014 at 2:43:32 AM

Latest Report: Jul 28, 2014 at 2:00 AM


Visibility: 4 mi

Pressure: 30.21 "Hg

Humidity: 100%

Dew point: 61 °F

Location of Campo GrandeLocation

Historic Weather in Campo Grande — Graph

°F

Campo Grande temperature yesterday

Maximum temperature yesterday: 70 °F (at 1:00 PM)
Minimum temperature yesterday: 55 °F (at 12:00 AM)
Average temperature yesterday: 61 °F

Past Weeks' High & Low Weather Summary

 TemperatureHumidityPressure
High86 °F (Jul 17, 1:00 PM)100% (Jul 18, 2:00 AM)30.24 "Hg (Jul 18, 2:00 AM)
Low37 °F (Jul 26, 12:00 PM)30% (Jul 21, 4:00 PM)29.89 "Hg (Jul 23, 5:00 PM)
Average65 °F68%30.11 "Hg
* Reported Jul 13 1:00 AM — Jul 28 1:00 AM, Campo Grande, Weather by CustomWeather, © 2014

Note: Actual official high and low records may vary slightly from our data, if they occured in-between our weather recording intervals... More about our weather records

Advertising

Campo Grande weather history for previous 24 hours

 ConditionsComfort  
Time TempWeatherWind HumidityBarometerVisibility
1:00 AM
Jul 28
61 °FThunderstorms. Partly cloudy.No wind100%N/A5 mi
12:06 AM63 °FStrong thunderstorms. Passing clouds.7 mph94%30.21 "Hg3 mi
12:00 AM45 °FThunderstorms. Passing clouds.6 mph100%30.21 "HgN/A
11:00 PM
Jul 27
63 °FThundershowers. Passing clouds.2 mph94%N/AN/A
10:00 PM63 °FPartly cloudy.3 mph94%30.21 "HgN/A
9:00 PM63 °FPassing clouds.No wind94%30.21 "HgN/A
8:00 PM63 °FPartly cloudy.No wind94%30.18 "HgN/A
7:00 PM63 °FPartly cloudy.5 mph94%30.18 "HgN/A
6:00 PM64 °FPartly cloudy.5 mph88%30.18 "HgN/A
5:00 PM66 °FPartly cloudy.5 mph83%30.15 "HgN/A
4:00 PM68 °FPartly sunny.7 mph83%30.15 "HgN/A
3:00 PM68 °FPartly sunny.5 mph83%30.12 "HgN/A
2:00 PM70 °FBroken clouds.9 mph73%30.12 "HgN/A
1:00 PM70 °FBroken clouds.7 mph73%30.12 "HgN/A
12:00 PM68 °FBroken clouds.6 mph83%30.15 "HgN/A
11:00 AM66 °FBroken clouds.7 mph83%30.18 "HgN/A
10:00 AM63 °FBroken clouds.8 mph88%30.18 "HgN/A
9:00 AM59 °FBroken clouds.6 mph94%30.18 "Hg4 mi
8:00 AM57 °FFog.6 mph100%30.15 "Hg1 mi
7:00 AM55 °FFog.5 mph100%30.15 "Hg1 mi
6:00 AM55 °FPartly sunny.5 mph100%30.15 "Hg5 mi
5:00 AM55 °FLight rain. Passing clouds.3 mph100%30.12 "Hg5 mi
4:00 AM55 °FLight rain. Passing clouds.5 mph100%30.09 "Hg1 mi
3:00 AM55 °FPassing clouds.5 mph100%30.12 "Hg5 mi
2:00 AM55 °FPartly cloudy.5 mph100%30.15 "HgN/A
Weather by CustomWeather, © 2014

See weather overviewHow to use our weather pages